Weather History for KCKV - February, 2013

Change the Weather History Date:

Saturday, February 2, 2013

  Actual Average Record
Temperature  
Mean Temperature 33 °F -  
Max Temperature 42 °F - 74 °F (1974)
Min Temperature 23 °F - -11 °F (1951)
Degree Days  
Heating Degree Days 32    
Month to date heating degree days  
Since 1 July heating degree days  
Cooling Degree Days 0    
Month to date cooling degree days  
Moisture  
Dew Point 27 °F    
Average Humidity 67    
Maximum Humidity 85    
Minimum Humidity 49    
Precipitation  
Precipitation T in - 2.36 in (1956)
Month to date precipitation  
Sea Level Pressure  
Sea Level Pressure 30.17 in    
Wind  
Wind Speed 7 mph (SW)    
Max Wind Speed 15 mph    
Max Gust Speed 21 mph    
Visibility 10 miles    
Events Snow    
T = Trace of Precipitation, MM = Missing Value Source: NWS Daily Summary

Daily Weather History Graph

Daily Weather History Graph

Search for Another Location

Airport or City:

Trip Planner

Search our weather history database for the weather conditions in past years. The results will help you decide how hot, cold, wet, or windy it might be!

Date:

Astronomy

Feb. 02, 2013 Rise Set
Actual Time 6:50 AM CST 5:16 PM CST
Civil Twilight 6:23 AM CST 5:44 PM CST
Nautical Twilight 5:52 AM CST 6:14 PM CST
Astronomical Twilight 5:22 AM CST 6:45 PM CST
Moon No Moon Rise 10:13 AM CST
Length of Visible Light 11h 20m
Length of Day
10h 26m
Waning Gibbous, 59% of the Moon is Illuminated
Feb 2
Waning Gibbous
Feb 3
Last Quarter
Feb 10
New
Feb 17
First Quarter
Feb 25
Full

Hourly Weather History & Observations

Time (CST) Temp. Windchill Dew Point Humidity Pressure Visibility Wind Dir Wind Speed Gust Speed Precip Events Conditions
12:52 AM 24.1 °F - 17.1 °F 75% 30.35 in 10.0 mi Calm Calm - N/A   Clear
1:52 AM 24.1 °F 19.7 °F 18.0 °F 77% 30.32 in 10.0 mi SSE 3.5 mph - N/A   Clear
2:52 AM 26.1 °F - 18.0 °F 71% 30.32 in 10.0 mi Calm Calm - N/A   Clear
3:52 AM 26.1 °F 19.4 °F 17.1 °F 69% 30.29 in 10.0 mi SSE 5.8 mph - N/A   Overcast
4:52 AM 27.0 °F 23.0 °F 17.1 °F 66% 30.28 in 10.0 mi South 3.5 mph - N/A   Overcast
5:52 AM 27.0 °F 20.5 °F 18.0 °F 69% 30.26 in 10.0 mi SSE 5.8 mph - N/A   Overcast
6:52 AM 28.0 °F 21.7 °F 18.0 °F 66% 30.25 in 10.0 mi SSE 5.8 mph - N/A   Overcast
7:52 AM 28.9 °F 19.8 °F 24.1 °F 82% 30.22 in 10.0 mi South 10.4 mph - 0.00 in   Overcast
8:52 AM 33.1 °F 23.9 °F 28.0 °F 82% 30.22 in 10.0 mi SSW 12.7 mph 19.6 mph N/A   Partly Cloudy
9:52 AM 35.1 °F 26.4 °F 27.0 °F 72% 30.19 in 10.0 mi SW 12.7 mph - N/A   Scattered Clouds
10:52 AM 39.0 °F 31.8 °F 25.0 °F 57% 30.16 in 10.0 mi SSW 11.5 mph 18.4 mph N/A   Clear
11:52 AM 42.1 °F 36.6 °F 25.0 °F 51% 30.14 in 10.0 mi West 9.2 mph - N/A   Overcast
12:52 PM 42.1 °F 34.5 °F 24.1 °F 49% 30.12 in 10.0 mi WSW 15.0 mph 20.7 mph N/A   Overcast
1:47 PM 37.4 °F 29.8 °F 30.2 °F 75% 30.10 in 8.0 mi SW 11.5 mph 20.7 mph 0.00 in Snow Light Snow
2:14 PM 37.4 °F 31.4 °F 33.8 °F 87% 30.09 in 10.0 mi SW 8.1 mph - 0.00 in   Overcast
2:31 PM 35.6 °F 29.9 °F 33.8 °F 93% 30.08 in 10.0 mi SW 6.9 mph - 0.00 in   Overcast
2:52 PM 37.0 °F 29.8 °F 33.1 °F 86% 30.10 in 10.0 mi WSW 10.4 mph - 0.00 in   Overcast
3:52 PM 37.0 °F 30.4 °F 33.1 °F 86% 30.10 in 10.0 mi West 9.2 mph - N/A   Overcast
4:37 PM 37.4 °F 30.8 °F 32.0 °F 81% 30.08 in 10.0 mi West 9.2 mph - 0.01 in   Mostly Cloudy
4:52 PM 37.0 °F 29.8 °F 32.0 °F 82% 30.10 in 10.0 mi West 10.4 mph - 0.01 in   Partly Cloudy
5:52 PM 36.0 °F 29.6 °F 30.9 °F 82% 30.13 in 10.0 mi West 8.1 mph - N/A   Clear
6:52 PM 35.1 °F 29.3 °F 30.9 °F 85% 30.14 in 10.0 mi WSW 6.9 mph - N/A   Mostly Cloudy
7:52 PM 36.0 °F 32.1 °F 32.0 °F 86% 30.14 in 10.0 mi WSW 4.6 mph - N/A   Overcast
8:52 PM 36.0 °F 32.1 °F 30.9 °F 82% 30.14 in 10.0 mi WSW 4.6 mph - N/A   Overcast
9:52 PM 36.0 °F 32.1 °F 30.9 °F 82% 30.14 in 10.0 mi WSW 4.6 mph - N/A   Mostly Cloudy
10:52 PM 35.1 °F 30.1 °F 30.0 °F 82% 30.13 in 10.0 mi WSW 5.8 mph - N/A   Overcast
11:52 PM 35.1 °F 32.2 °F 28.9 °F 78% 30.12 in 10.0 mi West 3.5 mph - N/A   Overcast